Weather History for KRXE - December, 2012

Change the Weather History Date:

Saturday, December 15, 2012

  Actual Average Record
Temperature  
Mean Temperature 28 °F 20 °F  
Max Temperature 30 °F 28 °F 45 °F (2006)
Min Temperature 25 °F 12 °F -3 °F (2001)
Degree Days  
Heating Degree Days 37 45  
Month to date heating degree days 475 650  
Since 1 July heating degree days 2162 2662  
Cooling Degree Days 0 0  
Month to date cooling degree days 0 0  
Year to date cooling degree days 419 208  
Moisture  
Dew Point 22 °F    
Average Humidity 84    
Maximum Humidity 92    
Minimum Humidity 75    
Precipitation  
Precipitation 0.01 in 0.03 in - ()
Month to date precipitation 0.67 0.38  
Year to date precipitation 9.72 12.41  
Sea Level Pressure  
Sea Level Pressure 29.84 in    
Wind  
Wind Speed 11 mph (SSW)    
Max Wind Speed 18 mph    
Max Gust Speed 24 mph    
Visibility 8 miles    
Events Snow    
T = Trace of Precipitation, MM = Missing Value Source: NWS Daily Summary

Daily Weather History Graph

Daily Weather History Graph

Search for Another Location

Airport or City:

Trip Planner

Search our weather history database for the weather conditions in past years. The results will help you decide how hot, cold, wet, or windy it might be!

Date:

Astronomy

Dec. 15, 2012 Rise Set
Actual Time 7:54 AM MST 4:50 PM MST
Civil Twilight 7:21 AM MST 5:23 PM MST
Nautical Twilight 6:45 AM MST 5:59 PM MST
Astronomical Twilight 6:10 AM MST 6:34 PM MST
Moon 9:46 AM MST (12/15) 8:03 PM MST (12/15)
Length of Visible Light 10h 01m
Length of Day
8h 55m
Waxing Crescent, 9% of the Moon is Illuminated
Dec 15
Waxing Crescent
Dec 19
First Quarter
Dec 28
Full
Jan 4
Last Quarter
Jan 11
New

Hourly Weather History & Observations

Time (MST) Temp. Windchill Dew Point Humidity Pressure Visibility Wind Dir Wind Speed Gust Speed Precip Events Conditions
12:37 AM 28.4 °F 18.0 °F 26.6 °F 93% 29.76 in 10.0 mi SSW 12.7 mph 20.7 mph N/A   Mostly Cloudy
12:53 AM 28.9 °F 19.8 °F 25.0 °F 85% 29.80 in 10.0 mi SSW 10.4 mph - N/A   Overcast
1:53 AM 28.9 °F 19.2 °F 25.0 °F 85% 29.82 in 10.0 mi SW 11.5 mph - N/A   Overcast
2:16 AM 28.4 °F 19.7 °F 24.8 °F 86% 29.78 in 10.0 mi SSW 9.2 mph - N/A   Overcast
2:53 AM 28.0 °F 18.6 °F 24.1 °F 85% 29.83 in 10.0 mi SSW 10.4 mph - N/A   Overcast
3:53 AM 28.0 °F 18.1 °F 24.1 °F 85% 29.83 in 10.0 mi SSW 11.5 mph - N/A   Overcast
4:53 AM 28.0 °F 18.6 °F 24.1 °F 85% 29.84 in 10.0 mi SSW 10.4 mph 19.6 mph N/A   Overcast
5:53 AM 27.0 °F 15.2 °F 23.0 °F 85% 29.87 in 10.0 mi SW 15.0 mph 24.2 mph N/A   Overcast
6:53 AM 27.0 °F 16.7 °F 23.0 °F 85% 29.88 in 10.0 mi SSW 11.5 mph - N/A   Overcast
7:28 AM 26.6 °F 16.2 °F 24.8 °F 93% 29.81 in 10.0 mi SSW 11.5 mph 21.9 mph N/A   Overcast
7:50 AM 26.6 °F 18.2 °F 23.0 °F 86% 29.82 in 10.0 mi SSW 8.1 mph - N/A   Overcast
7:53 AM 27.0 °F 17.3 °F 24.1 °F 89% 29.89 in 10.0 mi SSW 10.4 mph - N/A   Overcast
8:53 AM 27.0 °F 15.6 °F 23.0 °F 85% 29.89 in 10.0 mi SSW 13.8 mph - N/A   Overcast
9:53 AM 26.1 °F 14.5 °F 21.9 °F 84% 29.91 in 10.0 mi SW 13.8 mph - N/A   Overcast
10:53 AM 26.1 °F 15.6 °F 21.9 °F 84% 29.91 in 10.0 mi SW 11.5 mph - N/A   Overcast
11:12 AM 26.6 °F 16.2 °F 21.2 °F 80% 29.82 in 10.0 mi SW 11.5 mph - N/A   Overcast
11:53 AM 27.0 °F 16.7 °F 21.9 °F 81% 29.89 in 10.0 mi SSW 11.5 mph - N/A   Overcast
12:53 PM 27.0 °F 16.7 °F 23.0 °F 85% 29.89 in 2.5 mi SSW 11.5 mph - 0.00 in Snow Light Snow
1:00 PM 26.6 °F 16.2 °F 23.0 °F 86% 29.80 in 3.0 mi SSW 11.5 mph - 0.00 in Snow Light Snow
1:53 PM 27.0 °F 16.1 °F 23.0 °F 85% 29.88 in 8.0 mi SSW 12.7 mph - 0.00 in Snow Light Snow
2:09 PM 26.6 °F 15.2 °F 23.0 °F 86% 29.80 in 7.0 mi SSW 13.8 mph 18.4 mph 0.00 in Snow Light Snow
2:53 PM 26.1 °F 16.8 °F 24.1 °F 92% 29.88 in 4.0 mi SSW 9.2 mph - 0.00 in Snow Light Snow
3:18 PM 26.6 °F 15.7 °F 23.0 °F 86% 29.79 in 3.0 mi SSW 12.7 mph - 0.01 in Snow Light Snow
3:29 PM 26.6 °F 16.2 °F 23.0 °F 86% 29.79 in 3.0 mi SSW 11.5 mph - 0.01 in Snow Light Snow
3:49 PM 26.6 °F 14.7 °F 21.2 °F 80% 29.79 in 6.0 mi SSW 15.0 mph - 0.01 in Snow Light Snow
3:53 PM 26.1 °F 14.5 °F 21.9 °F 84% 29.88 in 6.0 mi SSW 13.8 mph - 0.01 in Snow Light Snow
4:08 PM 26.6 °F 16.8 °F 21.2 °F 80% 29.80 in 7.0 mi SSW 10.4 mph - 0.00 in Snow Light Snow
4:53 PM 26.1 °F 16.2 °F 21.9 °F 84% 29.89 in 6.0 mi SSW 10.4 mph - 0.00 in Snow Light Snow
5:53 PM 27.0 °F 16.1 °F 19.9 °F 75% 29.88 in 10.0 mi SSW 12.7 mph 23.0 mph 0.00 in   Overcast
6:19 PM 26.6 °F 18.2 °F 19.4 °F 74% 29.78 in 10.0 mi South 8.1 mph - N/A   Overcast
6:53 PM 26.1 °F 16.2 °F 21.0 °F 81% 29.87 in 10.0 mi South 10.4 mph - N/A   Overcast
7:53 PM 25.0 °F 15.5 °F 19.0 °F 78% 29.87 in 10.0 mi South 9.2 mph - N/A   Scattered Clouds
8:53 PM 26.1 °F 16.8 °F 19.0 °F 75% 29.86 in 10.0 mi South 9.2 mph - N/A   Overcast
9:53 PM 25.0 °F 16.3 °F 19.0 °F 78% 29.86 in 10.0 mi South 8.1 mph - N/A   Overcast
10:53 PM 26.1 °F 17.6 °F 19.0 °F 75% 29.86 in 10.0 mi SSW 8.1 mph - N/A   Overcast
11:53 PM 26.1 °F 16.8 °F 21.0 °F 81% 29.86 in 10.0 mi SSW 9.2 mph - N/A   Overcast